This is the latest recevied weather packets stored in our database for station/object DB0TV-13. If no packets are shown the sender has not sent any weather packets the latest 10 day(s).
| Time | Temp. | Humidity | Pressure | Rain* | Wind** | Luminosity | Snow |
|---|---|---|---|---|---|---|---|
| 1777791019 | 16.67° C | 60% | 1012.4 hPa | 0 mm | - | 350 W/m² | - |
| 1777790419 | 16.11° C | 61% | 1012.3 hPa | 0 mm | - | 324 W/m² | - |
| 1777789819 | 16.11° C | 63% | 1012.4 hPa | 0 mm | - | 254 W/m² | - |
| 1777789219 | 16.11° C | 62% | 1012.4 hPa | 0 mm | - | 149 W/m² | - |
| 1777788619 | 16.11° C | 62% | 1012.4 hPa | 0 mm | - | 177 W/m² | - |
| 1777788019 | 15.56° C | 63% | 1012.4 hPa | 0 mm | - | 251 W/m² | - |
| 1777787419 | 15.56° C | 64% | 1012.5 hPa | 0 mm | - | 194 W/m² | - |
| 1777786819 | 15° C | 65% | 1012.4 hPa | 0 mm | - | 163 W/m² | - |
| 1777786219 | 14.44° C | 67% | 1012.4 hPa | 0 mm | - | 83 W/m² | - |
| 1777785619 | 14.44° C | 66% | 1012.2 hPa | 0 mm | - | 57 W/m² | - |
| 1777785018 | 14.44° C | 67% | 1012.2 hPa | 0 mm | - | 69 W/m² | - |
| 1777784419 | 14.44° C | 67% | 1012.2 hPa | 0 mm | - | 43 W/m² | - |
| 1777783819 | 13.89° C | 68% | 1012.1 hPa | 0 mm | - | 19 W/m² | - |
| 1777783219 | 14.44° C | 69% | 1012.1 hPa | 0 mm | - | 13 W/m² | - |
| 1777782619 | 14.44° C | 68% | 1012.2 hPa | 0 mm | - | 10 W/m² | - |
| 1777782019 | 14.44° C | 69% | 1012.4 hPa | 0 mm | - | 7 W/m² | - |
| 1777781419 | 14.44° C | 69% | 1012.5 hPa | 0 mm | - | 1 W/m² | - |
| 1777780819 | 14.44° C | 69% | 1012.4 hPa | 0 mm | - | 0 W/m² | - |
| 1777780218 | 14.44° C | 70% | 1012.5 hPa | 0 mm | - | 0 W/m² | - |
| 1777779619 | 14.44° C | 70% | 1012.5 hPa | 0 mm | - | 0 W/m² | - |
| 1777779019 | 14.44° C | 71% | 1012.5 hPa | 0 mm | - | 0 W/m² | - |
| 1777778419 | 14.44° C | 72% | 1012.4 hPa | 0 mm | - | 0 W/m² | - |
| 1777777818 | 14.44° C | 73% | 1012.6 hPa | 0 mm | - | 0 W/m² | - |
| 1777777218 | 14.44° C | 74% | 1012.7 hPa | 0 mm | - | 0 W/m² | - |
| 1777776619 | 13.89° C | 75% | 1012.7 hPa | 0 mm | - | 0 W/m² | - |
* Rain latest hour (hover to see other rain measurements)
** Current wind speed in m/s (hover to see current wind gust speed)